Flight Track Log - Related Links

Times and Time Zones

All times are in EDT time to prevent confusion due to time zone crossing. See the FLG3432 flight status page for this flight to view local times or setup timezone preferences in your user account.

Time Position Orientation Groundspeed Altitude Reporting Facility
EDT Latitude Longitude Course Direction KTS km/h meters Rate Location/Type
Tue 09:16:39 40.6500 -73.8500 246° West 186 344 518  Level New York TRACON
Tue 09:17:39 40.6000 -73.9000 217° Southwest 229 425 1,036 655 Climbing New York TRACON
Tue 09:18:39 40.5500 -73.9500 217° Southwest 274 507 1,829 869 Climbing New York TRACON
Tue 09:19:00 40.3743 -74.1870 233° Southwest  Level FlightAware Approximate
Tue 09:19:39 40.4833 -74.0000 210° Southwest 282 523 2,774  Level New York TRACON
Tue 09:20:00 40.3079 -74.2981 232° Southwest  Level FlightAware Approximate
Tue 09:20:39 40.4167 -74.0667 217° Southwest 311 576 3,322  Level New York TRACON
Tue 09:21:00 40.2451 -74.4073 229° Southwest  Level FlightAware Approximate
Tue 09:22:00 40.1928 -74.5216 246° West  Level FlightAware Approximate
Tue 09:22:16 40.3294 -74.2367 236° Southwest 361 668 3,597  Level New York Center
Tue 09:23:17 40.2806 -74.3406 238° Southwest 366 678 4,054 514 Climbing New York Center
Tue 09:24:17 40.2228 -74.4569 237° Southwest 378 700 4,633 710 Climbing New York Center
Tue 09:25:18 40.1972 -74.6025 257° West 369 684 5,486 680 Climbing New York Center
Tue 09:26:18 40.1847 -74.7294 263° West 385 713 6,005 310 Climbing New York Center
Tue 09:27:16 40.1753 -74.8839 265° West 395 732 6,096 46 Climbing New York Center
Tue 09:28:17 40.1597 -75.0294 262° West 402 745 6,096  Level New York Center
Tue 09:29:17 40.1503 -75.1703 265° West 402 745 6,096  Level New York Center
Tue 09:30:15 40.1386 -75.3133 264° West 402 745 6,096  Level New York Center
Tue 09:31:16 40.0919 -75.4378 244° Southwest 391 724 6,096  Level New York Center
Tue 09:32:15 40.0214 -75.5389 228° Southwest 380 703 6,096  Level New York Center
Tue 09:33:16 39.9575 -75.6211 225° Southwest 359 665 6,096  Level New York Center
Tue 09:34:16 39.8972 -75.7144 230° Southwest 346 641 6,096 -75 Level New York Center
Tue 09:35:18 39.8472 -75.8164 237° Southwest 341 631 5,944 -330 Descending New York Center
Tue 09:36:18 39.7931 -75.9097 233° Southwest 336 623 5,425 -558 Descending New York Center
Tue 09:37:16 39.7633 -76.0156 250° West 319 591 4,846 -430 Descending New York Center
Tue 09:38:17 39.7464 -76.1142 257° West 319 591 4,572 -121 Descending New York Center
Tue 09:39:17 39.7244 -76.2314 256° West 314 581 4,602 -179 Climbing New York Center
Tue 09:40:50 39.6833 -76.4000 252° West 304 563 4,115 -358 Descending Potomac TRACON
Tue 09:41:50 39.6167 -76.4333 201° Southwest 297 550 3,688 -213 Descending Potomac TRACON
Tue 09:42:50 39.5333 -76.4833 205° Southwest 299 554 3,688  Level Potomac TRACON
Tue 09:43:44 39.4667 -76.5167 201° Southwest 300 555 3,688  Level Potomac TRACON
Tue 09:44:44 39.3833 -76.5500 197° South 296 549 3,688 -137 Level Potomac TRACON
Tue 09:45:44 39.3000 -76.6000 205° Southwest 300 555 3,414 -321 Descending Potomac TRACON
Tue 09:46:38 39.2333 -76.6333 201° Southwest 297 550 3,078 -176 Descending Potomac TRACON
Tue 09:47:38 39.1667 -76.6667 201° Southwest 296 549 3,078 -16 Level Potomac TRACON
Tue 09:48:32 39.1167 -76.7333 226° Southwest 292 541 3,048 -16 Descending Potomac TRACON
Tue 09:49:32 39.0500 -76.8000 218° Southwest 290 538 3,048 -143 Level Potomac TRACON
Tue 09:50:27 39.0000 -76.8667 226° Southwest 291 539 2,774 -429 Descending Potomac TRACON
Tue 09:51:27 38.9333 -76.9333 218° Southwest 283 525 2,225 -472 Descending Potomac TRACON
Tue 09:52:27 38.8667 -76.9500 191° South 276 512 1,829 -369 Descending Potomac TRACON
Tue 09:53:21 38.7833 -76.9500 180° South 273 505 1,524 -401 Descending Potomac TRACON
Tue 09:54:21 38.7167 -76.9333 169° South 256 475 1,067 -334 Descending Potomac TRACON
Tue 09:55:16 38.6667 -76.9500 195° South 242 447 884 -200 Descending Potomac TRACON

Login

Don't have an account? Register now (free) for customized features, flight alerts, and more!